Hinckley, MN

7:41 AM CST on December 08, 2019 (GMT -0600)
Hinckley

Weather History for K04W - October, 2019

Change the Weather History Date:

Wednesday, October 16, 2019

  Actual Average (KJMR) Record (KJMR)
Temperature  
Mean Temperature 42 °F -  
Max Temperature 48 °F 54 °F 83 °F (1947)
Min Temperature 37 °F 28 °F 16 °F (1952)
Degree Days  
Heating Degree Days 22    
Moisture  
Dew Point 37 °F    
Average Humidity 83    
Maximum Humidity 100    
Minimum Humidity 62    
Precipitation  
Precipitation 0.00 in - - ()
Sea Level Pressure  
Sea Level Pressure 30.06 in    
Wind  
Wind Speed 6 mph (NW)    
Max Wind Speed 9 mph    
Max Gust Speed -    
Visibility 10 miles    
Events Rain    
Averages and records for this station are not official NWS values.
T = Trace of Precipitation, MM = Missing Value Source: NWS Daily Summary

Daily Weather History Graph

Daily Weather History Graph

Search for Another Location

Airport or City:

Astronomy

Oct. 16, 2019 Rise Set
Actual Time 7:29 AM CDT 6:24 PM CDT
Civil Twilight 6:59 AM CDT 6:54 PM CDT
Nautical Twilight 6:24 AM CDT 7:28 PM CDT
Astronomical Twilight 5:50 AM CDT 8:03 PM CDT
Moon 8:10 PM CDT (10/16) 10:07 AM CDT (10/16)
Length of Visible Light 11h 54m
Length of Day
10h 54m
Waning Gibbous, 92% of the Moon is Illuminated
Oct 16
Waning Gibbous
Oct 21
Last Quarter
Oct 27
New
Nov 4
First Quarter
Nov 12
Full

Hourly Weather History & Observations

Time (CDT) Temp. Windchill Dew Point Humidity Pressure Visibility Wind Dir Wind Speed Gust Speed Precip Events Conditions
12:16 AM 41.0 °F 37.1 °F 37.4 °F 87% 30.03 in 10.0 mi NW 5.8 mph - N/A   Overcast
12:35 AM 41.0 °F 36.4 °F 37.4 °F 87% 30.03 in 10.0 mi NW 6.9 mph - N/A   Overcast
12:36 AM 41.0 °F 36.4 °F 37.4 °F 87% 30.03 in 10.0 mi NW 6.9 mph - N/A   Overcast
12:55 AM 42.8 °F 38.6 °F 37.4 °F 81% 30.03 in 10.0 mi NW 6.9 mph - N/A   Overcast
12:56 AM 42.8 °F 39.3 °F 37.4 °F 81% 30.03 in 10.0 mi NW 5.8 mph - N/A   Overcast
1:19 AM 42.8 °F 38.0 °F 37.4 °F 81% 30.04 in 10.0 mi NW 8.1 mph - N/A   Overcast
1:36 AM 42.8 °F 40.1 °F 37.4 °F 81% 30.04 in 10.0 mi NW 4.6 mph - N/A   Overcast
1:55 AM 42.8 °F 39.3 °F 37.4 °F 81% 30.04 in 10.0 mi NW 5.8 mph - N/A   Overcast
1:56 AM 42.8 °F 39.3 °F 37.4 °F 81% 30.04 in 10.0 mi NW 5.8 mph - N/A   Overcast
2:15 AM 42.8 °F 38.6 °F 37.4 °F 81% 30.04 in 10.0 mi NW 6.9 mph - N/A   Overcast
2:16 AM 42.8 °F 38.6 °F 37.4 °F 81% 30.04 in 10.0 mi NW 6.9 mph - N/A   Overcast
2:35 AM 42.8 °F 39.3 °F 37.4 °F 81% 30.04 in 10.0 mi NW 5.8 mph - N/A   Overcast
2:40 AM 42.8 °F 38.6 °F 37.4 °F 81% 30.05 in 10.0 mi NW 6.9 mph - N/A   Overcast
2:57 AM 42.8 °F 38.6 °F 37.4 °F 81% 30.05 in 10.0 mi NW 6.9 mph - N/A   Overcast
3:16 AM 41.0 °F 37.1 °F 37.4 °F 87% 30.05 in 10.0 mi NW 5.8 mph - N/A   Overcast
3:35 AM 42.8 °F 38.0 °F 37.4 °F 81% 30.05 in 10.0 mi NW 8.1 mph - N/A   Overcast
3:36 AM 42.8 °F 38.0 °F 37.4 °F 81% 30.05 in 10.0 mi NW 8.1 mph - N/A   Overcast
3:55 AM 41.0 °F 35.2 °F 37.4 °F 87% 30.05 in 10.0 mi NW 9.2 mph - N/A   Overcast
3:56 AM 41.0 °F 35.2 °F 37.4 °F 87% 30.05 in 10.0 mi NW 9.2 mph - N/A   Overcast
4:18 AM 41.0 °F 36.4 °F 37.4 °F 87% 30.06 in 10.0 mi NW 6.9 mph - N/A   Overcast
4:36 AM 41.0 °F 35.2 °F 37.4 °F 87% 30.06 in 10.0 mi NW 9.2 mph - N/A   Overcast
4:56 AM 41.0 °F 37.1 °F 37.4 °F 87% 30.07 in 10.0 mi NNW 5.8 mph - N/A   Mostly Cloudy
5:15 AM 37.4 °F 33.8 °F 37.4 °F 100% 30.07 in 10.0 mi NNW 4.6 mph - N/A   Scattered Clouds
5:16 AM 37.4 °F 33.8 °F 37.4 °F 100% 30.07 in 10.0 mi NNW 4.6 mph - N/A   Clear
5:35 AM 37.4 °F 33.8 °F 35.6 °F 93% 30.08 in 10.0 mi NW 4.6 mph - N/A   Clear
5:40 AM 37.4 °F 33.8 °F 37.4 °F 100% 30.08 in 10.0 mi NW 4.6 mph - N/A   Scattered Clouds
5:57 AM 37.4 °F 34.9 °F 37.4 °F 100% 30.07 in 10.0 mi NW 3.5 mph - N/A   Scattered Clouds
6:16 AM 37.4 °F 33.8 °F 37.4 °F 100% 30.07 in 10.0 mi NW 4.6 mph - N/A   Overcast
6:35 AM 37.4 °F 32.8 °F 37.4 °F 100% 30.07 in 10.0 mi WNW 5.8 mph - N/A   Overcast
6:36 AM 37.4 °F 32.8 °F 37.4 °F 100% 30.07 in 10.0 mi WNW 5.8 mph - N/A   Overcast
6:55 AM 37.4 °F 33.8 °F 37.4 °F 100% 30.07 in 10.0 mi NW 4.6 mph - N/A   Overcast
6:56 AM 37.4 °F 33.8 °F 37.4 °F 100% 30.07 in 10.0 mi NW 4.6 mph - N/A   Overcast
7:18 AM 39.2 °F 35.9 °F 37.4 °F 93% 30.07 in 10.0 mi WNW 4.6 mph - N/A   Overcast
7:35 AM 41.0 °F 38.0 °F 39.2 °F 93% 30.07 in 10.0 mi WNW 4.6 mph - N/A   Overcast
7:55 AM 41.0 °F 39.0 °F 39.2 °F 93% 30.08 in 10.0 mi WNW 3.5 mph - N/A   Overcast
7:56 AM 41.0 °F 38.0 °F 39.2 °F 93% 30.08 in 10.0 mi WNW 4.6 mph - N/A   Overcast
8:15 AM 41.0 °F 38.0 °F 41.0 °F 100% 30.08 in 7.0 mi WNW 4.6 mph - N/A   Overcast
8:16 AM 41.0 °F 38.0 °F 41.0 °F 100% 30.08 in 7.0 mi NW 4.6 mph - N/A   Overcast
8:38 AM 41.0 °F 39.0 °F 41.0 °F 100% 30.08 in 5.0 mi NNW 3.5 mph - N/A Rain Light Rain
8:57 AM 41.0 °F 39.0 °F 41.0 °F 100% 30.09 in 5.0 mi WNW 3.5 mph - N/A   Light Drizzle
9:15 AM 41.0 °F 38.0 °F 41.0 °F 100% 30.09 in 7.0 mi WNW 4.6 mph - N/A   Overcast
9:16 AM 41.0 °F 38.0 °F 41.0 °F 100% 30.09 in 10.0 mi WNW 4.6 mph - N/A   Overcast
9:35 AM 41.0 °F 35.2 °F 41.0 °F 100% 30.09 in 10.0 mi NW 9.2 mph - N/A   Overcast
9:36 AM 41.0 °F 35.8 °F 41.0 °F 100% 30.09 in 10.0 mi NNW 8.1 mph - N/A   Overcast
9:55 AM 42.8 °F 39.3 °F 41.0 °F 93% 30.09 in 10.0 mi NW 5.8 mph - N/A   Overcast
10:17 AM 42.8 °F 38.0 °F 41.0 °F 93% 30.10 in 10.0 mi NW 8.1 mph - N/A   Overcast
10:36 AM 42.8 °F 38.0 °F 41.0 °F 93% 30.10 in 10.0 mi NW 8.1 mph - N/A   Overcast
10:55 AM 44.6 °F 40.2 °F 41.0 °F 87% 30.10 in 10.0 mi NNW 8.1 mph - N/A   Overcast
10:56 AM 44.6 °F 40.7 °F 41.0 °F 87% 30.10 in 10.0 mi NNW 6.9 mph - N/A   Overcast
11:15 AM 44.6 °F 40.7 °F 39.2 °F 81% 30.10 in 10.0 mi WNW 6.9 mph - N/A   Overcast
11:38 AM 44.6 °F 40.2 °F 39.2 °F 81% 30.10 in 10.0 mi NNW 8.1 mph - N/A   Overcast
11:56 AM 44.6 °F 39.7 °F 37.4 °F 76% 30.09 in 10.0 mi NNW 9.2 mph - N/A   Overcast
12:16 PM 48.2 °F - 37.4 °F 66% 30.09 in 10.0 mi WNW 6.9 mph - N/A   Mostly Cloudy
12:36 PM 48.2 °F - 37.4 °F 66% 30.08 in 10.0 mi NW 9.2 mph - N/A   Mostly Cloudy
12:55 PM 48.2 °F - 37.4 °F 66% 30.08 in 10.0 mi NW 8.1 mph - N/A   Mostly Cloudy
1:16 PM 46.4 °F 42.4 °F 37.4 °F 71% 30.08 in 10.0 mi NNW 8.1 mph - N/A   Overcast
1:36 PM 46.4 °F 42.9 °F 35.6 °F 66% 30.08 in 10.0 mi NW 6.9 mph - N/A   Overcast
1:55 PM 46.4 °F 42.9 °F 37.4 °F 71% 30.07 in 10.0 mi West 6.9 mph - N/A   Overcast
1:56 PM 46.4 °F 42.4 °F 37.4 °F 71% 30.07 in 10.0 mi WNW 8.1 mph - N/A   Overcast
2:15 PM 46.4 °F 41.9 °F 37.4 °F 71% 30.06 in 10.0 mi West 9.2 mph - N/A   Overcast
2:38 PM 46.4 °F 41.9 °F 35.6 °F 66% 30.06 in 10.0 mi NW 9.2 mph - N/A   Overcast
2:55 PM 48.2 °F - 35.6 °F 62% 30.06 in 10.0 mi NW 8.1 mph - N/A   Overcast
3:15 PM 46.4 °F 42.9 °F 35.6 °F 66% 30.06 in 10.0 mi NW 6.9 mph - N/A   Overcast
3:35 PM 46.4 °F 42.9 °F 35.6 °F 66% 30.06 in 10.0 mi NW 6.9 mph - N/A   Overcast
3:58 PM 46.4 °F 44.3 °F 35.6 °F 66% 30.05 in 10.0 mi NW 4.6 mph - N/A   Overcast
4:16 PM 46.4 °F 45.2 °F 37.4 °F 71% 30.05 in 10.0 mi West 3.5 mph - N/A   Overcast
4:35 PM 46.4 °F 43.5 °F 35.6 °F 66% 30.05 in 10.0 mi West 5.8 mph - N/A   Overcast
4:55 PM 46.4 °F 42.9 °F 35.6 °F 66% 30.04 in 10.0 mi West 6.9 mph - N/A   Overcast
4:56 PM 46.4 °F 42.9 °F 35.6 °F 66% 30.05 in 10.0 mi West 6.9 mph - N/A   Overcast
5:15 PM 46.4 °F 44.3 °F 35.6 °F 66% 30.04 in 10.0 mi WNW 4.6 mph - N/A   Overcast
5:20 PM 46.4 °F 44.3 °F 35.6 °F 66% 30.04 in 10.0 mi WNW 4.6 mph - N/A   Overcast
5:37 PM 44.6 °F 42.2 °F 35.6 °F 71% 30.04 in 10.0 mi West 4.6 mph - N/A   Overcast
5:55 PM 44.6 °F 42.2 °F 35.6 °F 71% 30.03 in 10.0 mi WNW 4.6 mph - N/A   Overcast
6:15 PM 44.6 °F 42.2 °F 35.6 °F 71% 30.03 in 10.0 mi NW 4.6 mph - N/A   Overcast
6:16 PM 44.6 °F 42.2 °F 35.6 °F 71% 30.03 in 10.0 mi NW 4.6 mph - N/A   Overcast
6:35 PM 44.6 °F 43.1 °F 35.6 °F 71% 30.03 in 10.0 mi NW 3.5 mph - N/A   Overcast
6:36 PM 44.6 °F 43.1 °F 35.6 °F 71% 30.03 in 10.0 mi NW 3.5 mph - N/A   Overcast
6:58 PM 44.6 °F 41.4 °F 35.6 °F 71% 30.04 in 10.0 mi WNW 5.8 mph - N/A   Overcast
7:17 PM 42.8 °F 38.6 °F 35.6 °F 76% 30.03 in 10.0 mi NW 6.9 mph - N/A   Overcast
7:36 PM 42.8 °F 41.1 °F 35.6 °F 76% 30.04 in 10.0 mi WNW 3.5 mph - N/A   Scattered Clouds
7:55 PM 42.8 °F 40.1 °F 35.6 °F 76% 30.05 in 10.0 mi WNW 4.6 mph - N/A   Mostly Cloudy
8:17 PM 42.8 °F 41.1 °F 35.6 °F 76% 30.05 in 10.0 mi WNW 3.5 mph - N/A   Mostly Cloudy
8:35 PM 42.8 °F - 37.4 °F 81% 30.05 in 10.0 mi Calm Calm - N/A   Mostly Cloudy
8:55 PM 42.8 °F - 35.6 °F 76% 30.04 in 10.0 mi Calm Calm - N/A   Mostly Cloudy
8:56 PM 42.8 °F - 35.6 °F 76% 30.04 in 10.0 mi Calm Calm - N/A   Mostly Cloudy
9:15 PM 41.0 °F - 37.4 °F 87% 30.04 in 10.0 mi Calm Calm - N/A   Mostly Cloudy
9:39 PM 41.0 °F - 35.6 °F 81% 30.03 in 10.0 mi Calm Calm - N/A   Overcast
9:56 PM 41.0 °F - 37.4 °F 87% 30.04 in 10.0 mi Calm Calm - N/A   Overcast
10:15 PM 41.0 °F - 37.4 °F 87% 30.05 in 10.0 mi Calm Calm - N/A   Overcast
10:16 PM 41.0 °F - 37.4 °F 87% 30.05 in 10.0 mi Calm Calm - N/A   Overcast
10:35 PM 41.0 °F - 37.4 °F 87% 30.05 in 10.0 mi Calm Calm - N/A   Overcast
10:36 PM 41.0 °F - 37.4 °F 87% 30.05 in 10.0 mi Calm Calm - N/A   Overcast
10:55 PM 39.2 °F 37.0 °F 37.4 °F 93% 30.05 in 10.0 mi West 3.5 mph - N/A   Overcast
10:59 PM 39.2 °F 37.0 °F 37.4 °F 93% 30.05 in 10.0 mi West 3.5 mph - N/A   Overcast
11:17 PM 39.2 °F - 37.4 °F 93% 30.04 in 10.0 mi Calm Calm - N/A   Overcast
11:36 PM 41.0 °F 39.0 °F 37.4 °F 87% 30.05 in 10.0 mi WSW 3.5 mph - N/A   Overcast
11:55 PM 41.0 °F 39.0 °F 37.4 °F 87% 30.05 in 10.0 mi SW 3.5 mph - N/A   Overcast
11:56 PM 41.0 °F - 37.4 °F 87% 30.05 in 10.0 mi Calm Calm - N/A   Overcast